462  
ASGM40 PGUM 241210  
RWRGUM  
WEATHER ROUNDUP FOR THE MARIANAS  
NATIONAL WEATHER SERVICE TIYAN GU  
1000 PM CHST TUE NOV 24 2020  
 
GUZ001>004-241300-  
MARIANA ISLANDS-  
 
CITY SKY/WX TMP DP RH WIND PRES REMARKS
 
GUAM AIRPORT PTCLDY 79 75 89 E6 29.87F  
ANDERSEN AFB PTCLDY 79 75 89 E13 29.88  
ROTA AIRPORT NOT AVBL  
TINIAN AP NOT AVBL  
SAIPAN AP PTCLDY 82 77 83 E17 29.88S HX 91  
 

 
 
 
 
CLICK HERE TO GO TO PREVIOUS BULLETINS.

The Nexlab GU Page Main Text Page